Baker, MT

10:40 AM MDT on April 29, 2017 (GMT -0600)
Baker Municipal

Weather History for KBHK - February, 2012

Change the Weather History Date:

Wednesday, February 22, 2012

  Actual Average Record
Temperature  
Mean Temperature 34 °F -  
Max Temperature 39 °F 22 °F 64 °F (2002)
Min Temperature 28 °F -6 °F -9 °F (2015)
Degree Days  
Heating Degree Days 32    
Moisture  
Dew Point 31 °F    
Average Humidity 92    
Maximum Humidity 100    
Minimum Humidity 81    
Precipitation  
Precipitation 0.42 in - - ()
Sea Level Pressure  
Sea Level Pressure 29.36 in    
Wind  
Wind Speed 11 mph (West)    
Max Wind Speed 36 mph    
Max Gust Speed 45 mph    
Visibility 5 miles    
Events Fog , Rain , Snow    
Averages and records for this station are not official NWS values.
T = Trace of Precipitation, MM = Missing Value Source: NWS Daily Summary

Daily Weather History Graph

Daily Weather History Graph

Search for Another Location

Airport or City:

Trip Planner

Search our weather history database for the weather conditions in past years. The results will help you decide how hot, cold, wet, or windy it might be!

Date:

Astronomy

Feb. 22, 2012 Rise Set
Actual Time 6:49 AM MST 5:32 PM MST
Civil Twilight 6:18 AM MST 6:02 PM MST
Nautical Twilight 5:44 AM MST 6:37 PM MST
Astronomical Twilight 5:09 AM MST 7:12 PM MST
Moon 6:43 AM MST (2/22) 6:49 PM MST (2/22)
Length of Visible Light 11h 44m
Length of Day
10h 42m
New Moon, 1% of the Moon is Illuminated
Feb 22
New Moon
Feb 29
First Quarter
Mar 8
Full
Mar 14
Last Quarter
Mar 22
New

Hourly Weather History & Observations

Time (MST) Temp. Windchill Dew Point Humidity Pressure Visibility Wind Dir Wind Speed Gust Speed Precip Events Conditions
12:51 AM 32.0 °F 23.0 °F 28.9 °F 88% 29.54 in 10.0 mi West 11.5 mph - N/A   Clear
1:51 AM 30.0 °F 26.5 °F 28.0 °F 92% 29.54 in 10.0 mi NNW 3.5 mph - N/A   Scattered Clouds
2:51 AM 28.9 °F 23.9 °F 27.0 °F 92% 29.57 in 10.0 mi NW 4.6 mph - N/A   Mostly Cloudy
3:51 AM 28.0 °F 20.8 °F 25.0 °F 88% 29.55 in 10.0 mi West 6.9 mph - N/A   Mostly Cloudy
4:51 AM 28.0 °F - 25.0 °F 88% 29.55 in 10.0 mi Calm Calm - N/A   Clear
5:51 AM 28.9 °F 19.8 °F 26.1 °F 89% 29.56 in 10.0 mi WSW 10.4 mph - N/A   Clear
6:51 AM 30.0 °F 22.4 °F 27.0 °F 88% 29.55 in 10.0 mi WSW 8.1 mph - N/A   Mostly Cloudy
7:51 AM 30.9 °F 22.8 °F 28.0 °F 89% 29.53 in 10.0 mi WSW 9.2 mph - N/A   Scattered Clouds
8:51 AM 33.1 °F 26.1 °F 30.0 °F 89% 29.52 in 10.0 mi WSW 8.1 mph - N/A   Clear
9:51 AM 36.0 °F 32.1 °F 32.0 °F 86% 29.49 in 10.0 mi West 4.6 mph - N/A   Clear
10:51 AM 39.0 °F 32.3 °F 34.0 °F 82% 29.45 in 10.0 mi WSW 10.4 mph - N/A   Clear
11:51 AM 39.0 °F 30.3 °F 34.0 °F 82% 29.43 in 10.0 mi WSW 16.1 mph 20.7 mph N/A   Mostly Cloudy
12:10 PM 39.2 °F 31.6 °F 33.8 °F 81% 29.36 in 10.0 mi SW 12.7 mph - N/A   Overcast
12:51 PM 37.9 °F 27.9 °F 34.0 °F 86% 29.39 in 10.0 mi WSW 19.6 mph 26.5 mph 0.00 in   Overcast
12:57 PM 37.4 °F 26.9 °F 33.8 °F 87% 29.34 in 10.0 mi WSW 20.7 mph 27.6 mph N/A   Overcast
1:07 PM 37.4 °F 27.5 °F 33.8 °F 87% 29.33 in 10.0 mi WSW 18.4 mph - 0.00 in Rain Light Rain
1:51 PM 35.1 °F 24.8 °F 33.1 °F 92% 29.36 in 9.0 mi WSW 17.3 mph 24.2 mph 0.00 in Rain Light Rain
1:59 PM 35.6 °F 26.2 °F 33.8 °F 93% 29.30 in 6.0 mi WSW 15.0 mph - 0.00 in Snow Light Snow
2:46 PM 33.8 °F 27.7 °F 32.0 °F 93% 29.27 in 1.8 mi SW 6.9 mph - 0.03 in Snow Light Snow
2:51 PM 33.1 °F 27.7 °F 32.0 °F 96% 29.33 in 1.2 mi SSW 5.8 mph - 0.03 in Snow Light Snow
3:24 PM 33.8 °F 29.6 °F 32.0 °F 93% 29.26 in 1.0 mi SSW 4.6 mph - 0.04 in Snow Light Snow
3:30 PM 33.8 °F 29.6 °F 32.0 °F 93% 29.25 in 0.8 mi SSE 4.6 mph - 0.05 in Snow Light Snow
3:51 PM 32.0 °F 27.5 °F 32.0 °F 100% 29.31 in 0.2 mi East 4.6 mph - 0.11 in Fog , Snow Heavy Snow
4:19 PM 32.0 °F 25.6 °F 30.2 °F 93% 29.22 in 0.5 mi SE 6.9 mph - 0.05 in Fog , Snow Snow
4:33 PM 32.0 °F 25.6 °F 32.0 °F 100% 29.22 in 1.0 mi SE 6.9 mph - 0.06 in Snow Light Snow
4:42 PM 32.0 °F 23.0 °F 32.0 °F 100% 29.21 in 0.8 mi ESE 11.5 mph - 0.07 in Snow Light Snow
4:51 PM 32.0 °F 24.2 °F 32.0 °F 100% 29.29 in 0.5 mi SE 9.2 mph - 0.08 in Fog , Snow Snow
5:33 PM 32.0 °F 24.8 °F 32.0 °F 100% 29.22 in 1.2 mi SE 8.1 mph - 0.04 in Snow Light Snow
5:51 PM 33.1 °F 25.5 °F 32.0 °F 96% 29.29 in 1.0 mi SE 9.2 mph - 0.08 in Snow Light Snow
6:10 PM 33.8 °F 28.6 °F 32.0 °F 93% 29.24 in 1.5 mi South 5.8 mph - 0.02 in Snow Light Snow
6:21 PM 33.8 °F 27.7 °F 32.0 °F 93% 29.24 in 2.0 mi SSE 6.9 mph - 0.03 in Snow Light Snow
6:51 PM 33.1 °F 23.9 °F 32.0 °F 96% 29.26 in 2.5 mi ESE 12.7 mph - 0.04 in Snow Light Snow
7:02 PM 33.8 °F 27.0 °F 32.0 °F 93% 29.22 in 5.0 mi SE 8.1 mph - 0.01 in Snow Light Snow
7:17 PM 33.8 °F 27.0 °F 32.0 °F 93% 29.22 in 10.0 mi SSE 8.1 mph - 0.01 in   Overcast
7:43 PM 33.8 °F 29.6 °F 32.0 °F 93% 29.24 in 10.0 mi SE 4.6 mph - 0.01 in   Overcast
7:51 PM 33.1 °F 27.7 °F 32.0 °F 96% 29.30 in 3.0 mi East 5.8 mph - 0.01 in Rain Light Rain
7:57 PM 33.8 °F 29.6 °F 32.0 °F 93% 29.24 in 2.0 mi East 4.6 mph - 0.01 in Rain Light Rain
8:19 PM 32.0 °F 28.7 °F 32.0 °F 100% 29.24 in 2.5 mi East 3.5 mph - 0.03 in Snow Light Snow
8:34 PM 32.0 °F 26.4 °F 32.0 °F 100% 29.26 in 1.8 mi NNE 5.8 mph - 0.03 in Snow Light Snow
8:48 PM 32.0 °F 25.6 °F 30.2 °F 93% 29.27 in 2.0 mi NNE 6.9 mph - 0.04 in Snow Light Snow
8:51 PM 32.0 °F 24.8 °F 30.9 °F 96% 29.33 in 2.5 mi NNE 8.1 mph - 0.04 in Snow Light Snow
8:58 PM 32.0 °F 24.2 °F 30.2 °F 93% 29.27 in 4.0 mi NNE 9.2 mph - 0.00 in Snow Light Snow
9:12 PM 33.8 °F 24.8 °F 32.0 °F 93% 29.29 in 2.5 mi North 12.7 mph - 0.01 in Snow Light Snow
9:33 PM 33.8 °F 23.5 °F 30.2 °F 87% 29.31 in 1.5 mi North 16.1 mph - 0.02 in Snow Light Snow
9:41 PM 33.8 °F 23.9 °F 32.0 °F 93% 29.31 in 1.5 mi North 15.0 mph - 0.03 in Snow Light Snow
9:51 PM 33.1 °F 22.6 °F 32.0 °F 96% 29.38 in 1.2 mi NNW 16.1 mph - 0.03 in Snow Light Snow
10:02 PM 33.8 °F 24.3 °F 32.0 °F 93% 29.34 in 3.0 mi NNW 13.8 mph - 0.00 in Snow Light Snow
10:23 PM 32.0 °F 20.5 °F 30.2 °F 93% 29.36 in 2.5 mi NNW 18.4 mph 27.6 mph 0.00 in Snow Light Snow
10:26 PM 32.0 °F 19.2 °F 30.2 °F 93% 29.37 in 3.0 mi NNW 23.0 mph 28.8 mph 0.00 in Snow Light Snow
10:51 PM 33.1 °F 19.3 °F 30.9 °F 92% 29.44 in 2.5 mi NW 28.8 mph 34.5 mph 0.00 in Snow Light Snow
10:58 PM 32.0 °F 18.4 °F 30.2 °F 93% 29.40 in 1.0 mi NW 26.5 mph 34.5 mph 0.00 in Snow Light Snow
11:02 PM 32.0 °F 19.2 °F 30.2 °F 93% 29.40 in 0.8 mi NW 23.0 mph 34.5 mph 0.00 in Snow Light Snow
11:14 PM 32.0 °F 19.5 °F 30.2 °F 93% 29.41 in 1.2 mi NW 21.9 mph 31.1 mph 0.00 in Snow Light Snow
11:44 PM 32.0 °F 16.5 °F 30.2 °F 93% 29.43 in 2.0 mi NW 35.7 mph 42.6 mph 0.00 in Snow Light Snow
11:46 PM 32.0 °F 16.7 °F 28.4 °F 87% 29.43 in 3.0 mi NW 34.5 mph 42.6 mph 0.00 in Snow Light Snow
11:51 PM 32.0 °F 16.5 °F 28.9 °F 88% 29.48 in 7.0 mi NW 35.7 mph 44.9 mph 0.00 in Snow Light Snow